Showing default

KUIPER-00037, 63749

Orbit data source: Space-Track

KUIPER-00037, 63749 is a payload satellite owned by Kuiper Systems (US) in LEO that was launched on Mon, 28 Apr 2025 UTC via an ATLAS V 551 launch vehicle from the Air Force Eastern Test Range (AFETR). Payload-class satellites include a variety of spacecraft equipped with specific instruments for various scientific and technological missions. These include communications satellites like Starlink; space stations such as the ISS; scientific satellites like the Hubble; Earth observation satellites from companies like Planet Labs, Umbra, and HawkEye 360; GPS; miniature CubeSats for education and research; and military/defense satellites.

Loading next visibility...
Identifier
63749, 2025-088AB
Orbit
LEO
Country
Flag of USUS
Related business
Manufacturer
Kuiper Systems
Mission
Operational Commercial Communications
Bus & Motor
KUIPER, Unknown motor
Mass
~490 kg wet, ~490 kg dry
Launch date (UTC)
2025-04-28 (8 months ago)
Launch vehicle
ATLAS V 551
Launch site
Air Force Eastern Test Range (AFETR)
Object type
Payload
Rocket body
Debris
Shape & HBR
Box + 2 Pan, 3.4 m
Radar Cross Section
2.326 m², Large (>1 m²)

Expand to show TLE details & history
Last TLE update: 19 hours ago

TLE from 19 hours ago
0 KUIPER-00037
1 63749U 25088AB  25348.91668981 -.00028119  00000-0 -39104-2 0  9994
2 63749  51.8979 127.8815 0009963  85.2805  72.6299 14.77275313  5333
Epoch: 2025-12-14T22:00Z
TLE epoch observation values (Epoch: 2025-12-14T22:00:01.999Z)
Latitude
17.15758°
Longitude
-119.88271°
Altitude
635.987 km
Speed
7.544 km/s
True Right ascension
19h 35m 47s
True Declination
17° 03' 33"
Sunlit
Object was in daylight at epoch
Visualization orbit readout
Latitude
Unknown
Longitude
Unknown
Altitude
Unknown
Speed
Unknown
Apparent Right ascension
Unknown
Apparent Declination
Unknown
Sunlit
N/A
Visualization observer readout
Local Sidereal Time
15:11:07
Azimuth
Unknown
Elevation
Unknown
Doppler factor
Unknown
Orbital elements
Apogee altitude
645.379 km
Perigee altitude
631.398 km
Semi-major axis
7,016.526 km
Eccentricity
0.001
Inclination
51.8979°
RAAN
127.8815°
Arg. of periapsis
85.2805°
True anomaly
72.7389°
Mean anomaly
72.6299°
Eccentric anomaly
72.6844°
Mean motion
3.69284 °/min
Orbital period
97.49 mins
BSTAR
-0.0039104
Loading maneuver chart data...
Computing Atmospheric mass density...
Loading historical data...
Loading historical data...
Loading historical data...
Loading historical data...
Loading historical data...
Loading historical data...
Loading historical data...

Documentation

Showing up to 5 results
|